Lancaster, PA

7:10 PM EDT on May 22, 2017 (GMT -0400)
Lancaster

Weather History for KLNS - September, 2013

Change the Weather History Date:

Monday, September 2, 2013

  Actual Average Record
Temperature  
Mean Temperature 79 °F -  
Max Temperature 87 °F 82 °F 99 °F (1980)
Min Temperature 71 °F 60 °F 46 °F (1991)
Cooling Degree Days 14    
Growing Degree Days 29 (Base 50)    
Moisture  
Dew Point 69 °F    
Average Humidity 82    
Maximum Humidity 94    
Minimum Humidity 51    
Precipitation  
Precipitation 0.42 in - - ()
Sea Level Pressure  
Sea Level Pressure 29.76 in    
Wind  
Wind Speed 3 mph (WNW)    
Max Wind Speed 17 mph    
Max Gust Speed 23 mph    
Visibility 7 miles    
Events Rain , Thunderstorm    
Averages and records for this station are not official NWS values.
T = Trace of Precipitation, MM = Missing Value Source: NWS Daily Summary

Daily Weather History Graph

Daily Weather History Graph

Search for Another Location

Airport or City:

Trip Planner

Search our weather history database for the weather conditions in past years. The results will help you decide how hot, cold, wet, or windy it might be!

Date:

Astronomy

Sep. 02, 2013 Rise Set
Actual Time 6:34 AM EDT 7:34 PM EDT
Civil Twilight 6:06 AM EDT 8:02 PM EDT
Nautical Twilight 5:33 AM EDT 8:35 PM EDT
Astronomical Twilight 4:58 AM EDT 9:09 PM EDT
Moon 3:48 AM EDT (9/2) 5:47 PM EDT (9/2)
Length of Visible Light 13h 56m
Length of Day
13h 00m
Waning Crescent, 8% of the Moon is Illuminated
Sep 2
Waning Crescent
Sep 5
New
Sep 12
First Quarter
Sep 19
Full
Sep 26
Last Quarter

Hourly Weather History & Observations

Time (EDT) Temp. Heat Index Dew Point Humidity Pressure Visibility Wind Dir Wind Speed Gust Speed Precip Events Conditions
12:53 AM 75.0 °F - 71.1 °F 87% 29.78 in 7.0 mi Calm Calm - N/A   Clear
1:53 AM 73.9 °F - 71.1 °F 91% 29.78 in 5.0 mi ENE 4.6 mph - N/A   Clear
2:53 AM 73.0 °F - 71.1 °F 93% 29.77 in 5.0 mi Calm Calm - N/A   Mostly Cloudy
3:53 AM 73.0 °F - 71.1 °F 93% 29.77 in 4.0 mi ESE 3.5 mph - N/A   Mostly Cloudy
4:08 AM 73.4 °F - 71.6 °F 94% 29.78 in 1.8 mi SW 8.1 mph - 0.12 in Rain Heavy Rain
4:15 AM 73.4 °F - 71.6 °F 94% 29.78 in 1.0 mi North 4.6 mph - 0.25 in Rain , Thunderstorm Heavy Thunderstorms and Rain
4:18 AM 73.4 °F - 71.6 °F 94% 29.77 in 0.8 mi North 4.6 mph - 0.32 in Rain , Thunderstorm Heavy Thunderstorms and Rain
4:25 AM 71.6 °F - 69.8 °F 94% 29.77 in 1.5 mi North 4.6 mph - 0.37 in Rain , Thunderstorm Heavy Thunderstorms and Rain
4:29 AM 73.4 °F - 69.8 °F 88% 29.77 in 3.0 mi Calm Calm - 0.37 in Rain , Thunderstorm Light Rain
4:53 AM 72.0 °F - 70.0 °F 93% 29.77 in 9.0 mi Calm Calm - 0.37 in Thunderstorm Thunderstorm
5:05 AM 71.6 °F - 69.8 °F 94% 29.77 in 8.0 mi SW 4.6 mph - N/A   Scattered Clouds
5:53 AM 71.1 °F - 69.1 °F 93% 29.77 in 7.0 mi Calm Calm - N/A   Partly Cloudy
6:53 AM 71.1 °F - 69.1 °F 93% 29.78 in 3.0 mi Calm Calm - N/A   Clear
7:15 AM 71.6 °F - 69.8 °F 94% 29.79 in 2.5 mi Calm Calm - N/A   Clear
7:40 AM 71.6 °F - 69.8 °F 94% 29.79 in 3.0 mi Calm Calm - N/A   Clear
7:53 AM 72.0 °F - 70.0 °F 93% 29.79 in 4.0 mi Calm Calm - N/A   Partly Cloudy
8:53 AM 73.9 °F - 70.0 °F 87% 29.79 in 7.0 mi Calm Calm - N/A   Scattered Clouds
9:53 AM 77.0 °F - 69.1 °F 76% 29.80 in 10.0 mi NNW 3.5 mph - N/A   Clear
10:53 AM 80.1 °F 83.2 °F 70.0 °F 71% 29.79 in 9.0 mi NW 3.5 mph - N/A   Partly Cloudy
11:53 AM 81.0 °F 84.9 °F 71.1 °F 72% 29.79 in 9.0 mi WSW 3.5 mph - N/A   Partly Cloudy
12:53 PM 81.0 °F 84.4 °F 70.0 °F 69% 29.78 in 10.0 mi NNW 6.9 mph 17.3 mph 0.00 in Rain Light Rain
1:53 PM 84.0 °F 87.0 °F 68.0 °F 58% 29.76 in 10.0 mi NW 4.6 mph - 0.00 in   Scattered Clouds
2:53 PM 84.9 °F 88.2 °F 68.0 °F 57% 29.75 in 10.0 mi Variable 6.9 mph - N/A   Partly Cloudy
3:53 PM 86.0 °F 89.4 °F 68.0 °F 55% 29.73 in 10.0 mi Calm Calm - N/A   Mostly Cloudy
4:53 PM 87.1 °F 89.9 °F 66.9 °F 51% 29.71 in 10.0 mi Calm Calm - N/A   Partly Cloudy
5:53 PM 84.9 °F 88.2 °F 68.0 °F 57% 29.72 in 10.0 mi SW 5.8 mph - N/A   Scattered Clouds
6:53 PM 82.9 °F 85.8 °F 68.0 °F 60% 29.72 in 10.0 mi South 3.5 mph - N/A   Partly Cloudy
7:53 PM 75.0 °F - 63.0 °F 66% 29.71 in 10.0 mi NNE 17.3 mph 23.0 mph 0.00 in   Overcast
8:53 PM 71.1 °F - 69.1 °F 93% 29.73 in 10.0 mi South 9.2 mph - 0.05 in   Clear
9:53 PM 72.0 °F - 69.1 °F 91% 29.73 in 10.0 mi Calm Calm - N/A   Clear
10:53 PM 73.0 °F - 68.0 °F 84% 29.73 in 10.0 mi SSW 9.2 mph - N/A   Clear
11:53 PM 72.0 °F - 69.1 °F 91% 29.75 in 9.0 mi NW 4.6 mph - N/A   Clear